Theta_e
303 304 304 304 304 303 302 302 302 302 303 304 305 306 308 309 309 310 310 310 310 310 310 310 311 312 313 312 312 311 311 314 320 321 319 317 317 317 312 314 316 316 332 346 344 346 344 342 345 345 346 347 346 348 350 351 353 356 362 359 350 350 351 351 355 353 353 357 358 357 356 359 357 355 353 352 353 353 354 353 352 352 352 353 354 352 349 348
303 304 304 305 305 304 303 302 302 302 303 304 306 307 308 310 309 308 308 309 309 309 309 309 310 311 312 312 312 310 313 318 320 320 321 322 323 323 315 313 316 317 332 347 344 343 341 340 343 343 343 344 346 347 349 349 352 358 361 356 351 356 355 351 354 351 351 355 356 357 355 357 357 356 353 354 356 354 355 354 352 353 352 352 353 351 349 349
302 303 304 305 305 305 303 302 302 303 303 305 307 308 309 309 309 308 308 308 308 308 308 309 309 310 311 312 311 311 315 320 321 324 327 328 326 327 319 314 317 317 330 346 341 340 341 341 344 342 342 343 344 344 348 350 353 357 357 357 356 356 355 351 353 350 351 352 354 356 355 357 355 354 353 356 357 355 356 355 354 354 352 350 349 351 350 349
302 303 304 305 305 305 304 302 302 302 303 305 307 309 309 309 309 308 308 308 307 308 307 308 309 309 311 311 311 314 318 323 323 325 328 329 326 327 320 315 318 318 331 344 338 337 339 341 344 342 342 342 343 344 347 349 353 355 355 358 357 354 355 353 352 351 350 349 353 355 355 357 354 353 354 356 357 356 355 354 355 355 351 348 348 349 350 349
301 302 303 304 305 305 304 303 302 302 303 306 309 309 309 308 308 308 308 308 307 307 306 307 310 310 312 311 312 316 321 322 321 323 324 325 324 325 319 315 319 325 337 342 335 337 337 340 342 339 340 340 342 344 346 348 351 354 355 356 355 354 356 353 351 352 351 350 353 355 356 357 354 354 353 356 357 356 354 352 353 352 349 349 348 349 351 349
301 302 303 304 305 305 304 303 302 303 304 307 309 309 309 309 308 308 309 308 308 307 306 309 311 312 312 311 314 318 322 315 318 323 322 322 324 323 317 316 322 332 341 340 337 338 337 338 337 338 339 337 342 343 343 346 350 354 355 353 355 355 358 355 352 352 351 351 354 355 355 355 354 355 354 354 356 353 352 351 351 351 350 351 349 350 348 346
301 302 303 304 305 305 304 303 303 303 306 308 309 309 309 309 308 308 308 308 308 306 307 311 313 312 312 313 317 320 320 313 319 324 321 322 325 321 316 319 328 338 342 340 339 337 335 336 333 335 335 333 340 340 340 345 348 353 354 353 354 354 355 354 353 352 349 350 351 353 353 354 355 356 354 353 353 352 351 352 351 352 353 352 349 347 346 347
301 302 302 304 305 305 304 303 303 304 306 308 308 309 309 309 309 308 307 308 307 306 310 312 312 312 312 317 321 319 315 318 321 321 321 328 329 319 318 327 335 341 343 340 336 334 332 334 332 332 331 330 336 338 340 345 346 350 352 353 355 353 353 351 351 350 348 350 348 351 353 353 354 354 354 353 352 352 351 352 351 351 352 349 348 347 347 347
301 302 302 304 305 306 305 303 303 305 306 307 306 307 308 308 308 307 306 307 307 310 313 312 312 311 313 319 321 314 317 321 320 318 321 332 330 321 324 333 337 340 342 338 333 333 331 331 330 330 330 328 334 337 340 343 342 346 349 350 352 351 351 350 350 350 349 349 348 351 352 352 351 352 355 352 351 352 352 352 351 351 350 349 348 347 347 346
301 302 303 304 305 306 305 303 304 305 306 306 306 306 306 307 306 305 306 308 311 313 313 312 312 312 316 321 317 315 319 319 319 318 321 331 329 324 328 334 338 340 339 335 333 332 331 330 329 329 330 330 334 333 335 339 338 343 345 345 349 349 350 350 350 349 348 348 347 350 351 351 350 352 354 351 349 353 353 353 352 352 351 350 349 347 349 347
302 302 303 304 305 306 306 304 305 305 305 306 306 306 305 305 304 305 308 312 314 314 313 314 312 314 320 319 315 316 315 315 318 317 322 330 329 325 328 332 338 338 335 334 334 332 330 330 330 331 328 328 332 329 331 337 336 340 342 343 344 344 346 347 348 348 346 347 345 348 350 350 350 352 353 350 351 353 353 354 353 353 351 350 350 348 349 350
302 302 303 304 305 307 306 304 305 305 306 306 306 306 305 305 305 307 312 315 315 313 313 313 312 316 320 318 316 316 314 315 317 316 320 326 328 327 329 333 336 336 333 332 333 332 331 330 331 331 326 325 329 328 329 335 335 336 338 340 341 341 344 344 346 345 346 347 345 347 347 349 353 351 350 350 353 353 354 355 354 354 352 351 351 349 349 351
303 303 304 304 306 307 306 305 305 306 306 307 307 306 306 305 306 311 315 314 311 311 312 312 313 318 321 318 317 317 317 318 318 317 317 321 325 325 328 333 334 333 332 332 331 331 329 330 332 331 325 322 326 326 326 331 332 331 332 336 338 339 342 345 345 344 346 346 345 346 340 343 353 350 349 352 352 354 354 355 354 354 353 351 351 350 350 351
303 303 304 305 306 307 306 305 305 306 307 308 308 307 306 306 308 314 316 311 310 312 313 313 316 320 321 319 317 316 316 318 319 318 315 320 324 324 326 331 333 332 331 331 330 330 330 331 332 329 325 323 326 325 323 326 329 328 327 331 334 330 335 345 345 343 347 344 345 346 334 340 352 349 347 352 351 354 355 355 355 354 354 352 352 351 350 351
304 304 305 305 307 308 306 305 306 307 308 308 308 307 307 308 311 316 315 310 311 314 315 316 319 322 323 318 317 315 316 319 321 315 313 318 321 326 328 329 333 332 329 329 329 330 330 331 330 327 324 322 324 323 322 325 329 329 322 320 328 327 333 346 344 343 348 344 345 345 335 341 351 347 347 351 351 353 354 355 355 354 355 354 352 352 349 351
304 304 305 306 308 308 306 306 306 307 308 309 308 307 308 310 313 316 313 309 313 317 319 323 323 323 322 315 315 317 317 317 315 312 314 315 315 325 329 329 333 330 326 327 327 328 327 328 327 326 325 322 323 322 321 320 321 327 321 315 321 326 330 340 342 344 346 345 347 344 339 345 350 347 348 351 350 352 353 355 356 354 355 354 353 352 351 350
304 304 305 306 308 308 306 306 306 308 309 309 308 307 309 312 314 317 312 313 317 320 321 323 322 323 321 314 314 315 314 313 312 312 314 312 312 323 330 329 331 328 325 325 326 326 325 325 326 324 325 322 322 322 319 314 313 319 321 318 321 327 328 332 339 345 345 344 347 346 345 347 350 347 348 350 351 351 352 354 356 356 355 355 354 352 351 351
305 305 305 306 308 308 307 307 307 308 309 309 308 307 311 313 316 318 317 318 320 323 323 322 321 323 318 313 313 312 312 313 312 311 312 312 313 322 329 328 328 325 323 323 324 324 323 323 324 324 324 322 323 320 315 313 314 314 317 316 318 325 328 330 336 342 344 345 346 346 346 348 347 347 349 350 350 351 352 353 355 355 356 357 356 354 352 351
305 305 305 306 308 308 307 307 308 308 309 310 309 308 313 316 318 319 318 318 319 321 322 317 316 317 313 312 312 311 312 312 311 314 315 315 317 324 328 326 325 324 322 323 324 324 323 323 323 322 322 321 322 320 318 319 320 319 320 318 316 321 325 333 340 340 344 345 345 346 345 348 346 345 349 348 349 351 351 353 355 356 356 356 356 354 353 353
306 305 305 306 308 308 307 307 308 308 308 311 312 312 314 316 318 317 314 311 311 311 311 310 311 311 311 311 312 311 312 313 313 315 316 317 321 327 325 323 324 322 322 323 323 324 324 322 323 322 321 322 321 321 322 323 326 326 324 322 320 320 322 334 341 339 340 340 342 346 346 347 346 344 347 347 349 351 351 353 355 357 357 356 357 355 355 354
307 305 305 307 309 309 308 308 309 309 309 312 313 313 312 311 313 313 312 310 309 309 309 310 311 311 311 311 311 311 311 314 314 315 315 318 324 326 323 323 324 323 322 321 321 324 324 322 323 323 322 323 321 321 321 322 325 326 324 322 321 321 323 333 339 337 338 337 338 344 343 344 346 345 345 346 349 350 350 352 354 357 357 357 358 357 356 355
307 305 305 307 309 309 308 309 310 308 310 312 312 311 311 311 312 312 311 311 310 311 310 310 311 311 311 311 311 310 311 313 314 314 315 317 323 326 323 322 323 323 322 321 321 321 322 322 323 325 323 323 322 322 321 321 322 324 324 321 318 320 325 330 337 337 335 335 336 343 340 339 344 343 343 345 348 350 350 351 354 358 359 358 357 357 357 356
308 305 305 307 309 309 308 309 310 310 311 312 312 311 311 311 312 312 311 311 311 311 311 310 311 310 310 311 311 310 311 313 313 314 314 317 323 324 324 323 322 322 321 320 321 318 318 320 323 323 322 322 323 322 322 321 321 321 321 317 316 321 323 321 328 335 336 334 337 340 337 337 343 342 342 343 347 351 350 349 353 356 357 358 357 356 357 357
308 306 304 307 309 309 308 308 311 312 311 312 311 311 311 310 312 312 310 310 310 311 311 310 310 310 309 310 310 310 312 312 312 314 314 316 319 321 323 325 323 322 321 320 321 319 319 320 321 322 321 323 322 322 323 320 318 318 319 317 318 323 325 323 328 335 334 334 337 336 329 330 338 342 341 341 345 350 350 350 352 354 356 356 356 356 357 357
309 307 304 306 309 309 307 309 312 312 312 312 311 311 311 311 313 313 312 311 311 311 312 310 310 309 308 309 310 311 311 311 312 314 315 315 316 317 320 324 324 323 321 320 320 320 319 320 321 321 321 322 321 321 321 318 315 314 317 320 321 326 329 329 331 330 325 324 333 334 322 323 334 338 341 342 344 349 349 351 354 355 358 357 357 358 356 356
309 307 304 305 308 309 309 311 312 312 312 312 311 311 311 311 313 312 312 312 310 311 311 310 310 308 308 310 311 310 311 312 313 314 316 316 315 315 318 322 324 324 323 322 321 319 319 320 321 320 321 321 320 319 319 319 315 312 316 320 321 325 329 328 329 325 319 320 331 335 324 321 327 333 341 342 345 349 350 353 353 355 358 358 357 357 357 357
309 306 304 305 308 309 311 313 312 312 312 311 310 310 311 311 312 312 312 311 310 311 310 310 309 308 309 309 311 311 311 312 313 314 316 316 316 316 315 319 323 323 324 323 319 318 319 320 320 320 320 319 318 317 319 321 314 313 318 321 319 321 325 328 327 323 322 324 330 332 327 321 320 329 340 341 341 348 352 354 354 355 358 357 357 357 357 357
309 306 304 306 308 310 310 312 312 312 311 310 311 310 310 312 312 312 312 310 310 310 309 309 309 308 309 310 310 311 311 312 314 315 315 316 316 315 314 317 320 322 324 324 319 319 319 319 320 321 320 318 318 318 319 320 316 317 320 322 320 320 321 325 325 322 325 325 321 324 326 322 318 327 342 343 338 343 351 354 353 354 356 358 356 355 356 357
308 305 305 306 309 310 309 310 312 312 310 310 310 310 310 312 313 313 311 309 310 310 308 309 309 308 309 310 310 310 311 312 313 314 315 316 315 315 315 315 317 320 322 323 321 322 322 320 320 321 320 319 319 321 320 319 319 319 320 321 322 321 319 320 323 321 322 322 319 320 322 320 318 322 332 335 334 339 348 351 352 354 356 357 357 355 355 357
307 305 305 307 311 312 311 312 312 311 310 309 309 309 310 312 313 311 311 311 311 309 308 309 309 308 309 310 310 310 311 312 313 315 316 316 314 315 315 315 315 317 320 323 323 323 324 322 322 321 321 320 321 322 321 320 321 320 321 322 321 321 320 319 320 320 320 321 320 320 321 321 319 320 326 332 335 339 344 346 350 353 353 356 356 354 354 356
306 305 306 308 311 311 311 314 312 310 310 308 309 310 311 312 311 311 311 310 309 309 309 309 308 308 309 309 309 309 310 311 313 314 315 316 315 315 315 315 315 316 317 319 321 322 323 323 324 322 321 321 321 322 323 322 321 321 321 320 317 316 317 315 316 318 320 319 319 321 324 321 317 320 328 336 339 339 340 342 347 351 352 355 356 355 355 356
306 305 308 308 308 309 311 312 310 309 309 309 310 311 311 312 311 310 310 309 308 309 308 308 308 308 308 309 309 309 309 311 311 314 315 315 316 315 315 316 316 315 314 315 317 319 322 323 324 324 323 322 321 320 322 322 322 321 320 318 313 312 315 315 314 315 317 317 318 321 323 320 319 324 333 338 338 338 339 340 344 348 350 354 355 355 355 355
305 306 309 308 307 310 310 310 309 309 309 310 312 311 310 311 312 310 310 309 309 308 307 308 308 308 309 309 309 308 309 310 310 313 315 315 316 314 313 314 315 315 315 315 315 315 317 320 322 323 324 323 323 320 318 319 321 320 317 315 312 314 317 317 315 315 316 315 317 322 322 318 318 327 336 337 336 337 339 340 340 344 347 351 353 355 353 354
304 307 309 309 309 310 310 309 310 309 310 312 312 311 310 312 312 311 310 309 308 307 307 308 308 308 309 308 308 308 309 310 309 311 314 315 316 315 314 313 314 315 317 316 315 314 314 316 319 322 323 323 324 322 320 322 322 321 321 319 314 313 317 317 314 314 314 313 314 318 319 316 315 325 334 335 336 337 337 337 338 341 342 346 350 352 353 353
306 308 310 311 312 311 310 310 309 309 311 312 311 311 312 312 312 310 309 309 307 308 307 307 308 308 309 309 308 308 308 309 308 309 312 315 315 315 314 313 312 314 316 316 316 316 313 315 320 322 322 324 324 323 324 323 321 323 323 319 314 315 318 317 315 314 313 313 313 314 315 318 323 330 334 334 334 335 334 335 337 338 339 340 345 348 350 350
309 310 311 312 312 310 310 310 309 309 311 312 311 312 311 311 310 309 309 308 307 308 308 308 308 308 309 309 309 309 308 309 309 309 312 314 314 314 312 311 311 312 314 316 317 317 314 316 321 323 323 324 324 324 325 322 320 322 321 316 318 322 321 316 314 315 315 315 315 314 314 319 322 326 331 333 333 333 334 335 334 335 337 338 341 344 347 350
311 312 312 313 311 309 310 310 308 310 311 311 312 312 310 309 309 308 309 308 307 307 308 309 308 308 309 309 309 309 309 309 309 309 310 312 313 313 312 311 310 310 312 314 317 318 316 317 321 322 322 323 323 324 325 324 323 322 319 319 321 324 322 318 314 315 316 316 316 314 314 316 315 318 326 331 330 332 332 333 333 335 336 337 337 340 345 349
312 312 313 313 310 309 310 309 309 311 311 312 313 312 310 309 309 308 308 307 307 307 308 309 309 308 308 309 309 309 308 309 309 309 309 311 313 313 312 311 310 310 310 312 315 317 317 317 320 321 322 323 323 324 323 323 325 323 322 325 323 318 317 317 316 316 316 316 315 312 312 313 312 315 322 327 329 330 332 333 332 333 333 336 337 339 344 346
313 314 314 312 310 310 309 309 311 311 311 313 313 311 309 309 309 308 308 308 307 307 308 308 308 308 308 308 309 308 308 309 309 309 309 310 312 312 311 311 310 310 309 311 314 316 317 318 319 320 322 323 322 322 319 320 323 324 324 326 324 320 318 318 318 317 316 315 315 313 312 312 315 320 324 328 330 328 329 331 332 331 333 334 335 340 343 345
313 314 314 311 310 309 309 311 313 312 312 313 312 311 309 309 309 308 308 308 307 308 308 308 308 309 309 308 308 308 309 308 308 309 309 309 310 311 311 309 309 310 309 310 313 314 317 319 318 320 321 320 319 321 321 320 322 322 320 321 321 321 321 321 319 317 316 315 316 316 314 313 319 327 327 328 331 331 330 331 332 333 332 332 338 339 342 345
313 314 313 311 310 309 310 313 312 311 312 312 311 311 310 310 309 309 308 307 308 308 307 308 308 308 308 308 308 308 308 308 308 309 308 308 309 310 310 309 308 309 309 311 313 315 317 319 318 318 318 317 319 321 322 322 323 323 321 320 320 319 318 318 318 317 315 315 315 317 315 314 322 329 327 326 330 330 331 331 331 332 331 332 337 338 339 346
313 314 313 311 310 311 312 312 312 311 312 312 310 311 311 311 309 309 309 308 308 308 307 308 308 308 308 308 308 308 307 308 308 308 308 308 308 309 309 309 308 308 309 311 314 314 316 318 319 319 318 318 321 321 320 321 321 324 323 324 325 324 319 316 316 317 316 315 316 315 314 318 326 331 327 328 328 327 328 330 330 331 332 333 335 336 339 346
312 313 312 311 310 311 313 313 312 312 311 310 310 310 309 310 309 309 309 309 308 308 308 308 308 308 309 308 308 308 308 308 308 308 309 309 308 309 309 308 308 308 309 312 314 314 315 317 319 320 319 320 321 320 320 321 322 322 322 325 325 324 321 320 320 320 318 316 316 316 314 318 328 332 329 328 328 327 329 329 331 332 331 332 334 336 340 347
311 311 312 311 311 312 314 313 313 312 310 310 310 309 309 309 309 309 309 309 309 309 308 308 308 308 308 308 308 308 308 308 308 309 309 309 309 309 309 308 308 308 309 312 314 314 314 317 320 319 318 319 320 319 320 321 321 321 323 325 323 323 325 324 323 324 322 318 317 317 314 317 328 333 331 330 328 327 329 329 329 331 331 330 332 337 343 350
311 313 312 312 311 312 312 312 312 312 311 311 310 310 310 309 309 309 309 309 309 308 309 308 308 308 308 308 308 308 308 308 308 309 309 308 308 309 309 308 308 308 308 311 312 312 312 316 318 320 321 320 321 321 319 319 320 321 322 323 322 322 323 323 321 321 321 320 319 317 316 319 331 335 332 331 329 327 327 328 328 329 331 331 331 336 343 348
312 314 314 313 312 310 310 309 310 311 311 311 311 310 310 309 309 308 308 309 309 308 309 309 308 308 308 308 308 308 308 307 308 308 308 308 308 309 309 308 308 308 309 311 312 311 311 313 316 319 321 321 321 320 317 316 318 319 320 320 321 321 323 323 321 319 321 322 319 320 321 321 326 333 332 331 332 334 334 333 332 331 332 333 335 338 341 343
312 313 313 313 313 312 311 309 310 310 310 311 312 310 310 309 309 309 308 309 309 308 309 309 308 309 310 310 310 309 309 309 309 309 308 308 308 309 308 308 308 309 310 311 310 310 310 312 314 315 317 317 316 316 314 314 316 316 318 319 319 321 322 322 321 322 326 323 318 324 329 323 324 332 332 333 338 341 338 338 339 337 334 335 336 339 339 339
312 311 310 310 312 313 312 310 310 310 310 311 310 310 310 309 309 309 309 309 309 308 309 310 309 309 310 311 310 311 311 311 311 310 311 310 310 310 309 309 309 309 309 309 309 309 310 311 312 313 313 314 314 313 313 313 314 315 317 318 318 320 321 321 321 324 327 325 322 328 333 328 327 331 333 337 342 342 339 341 342 342 343 344 343 341 336 333
312 311 309 310 310 311 310 309 309 310 310 311 310 310 310 310 309 309 309 309 309 309 309 309 309 309 310 311 311 312 312 311 311 312 312 311 311 310 310 310 309 309 309 308 309 309 310 311 312 312 312 314 314 314 314 313 314 314 315 317 318 319 320 320 322 324 325 326 327 330 332 330 331 337 339 339 341 341 340 342 344 348 351 352 351 348 342 339
311 310 310 311 310 310 310 309 310 311 310 310 311 310 309 310 310 309 309 309 309 310 309 309 309 309 310 310 311 311 311 311 311 312 311 311 311 311 310 310 309 309 309 309 309 310 310 311 312 311 312 313 313 314 314 314 314 314 314 317 318 319 319 319 320 322 324 326 330 331 329 329 334 342 342 340 340 342 343 345 350 353 353 354 354 351 350 352
309 309 309 311 311 311 310 310 310 311 310 310 311 310 309 310 309 309 309 309 309 310 309 308 309 310 311 311 311 311 310 310 310 310 310 310 310 310 310 310 309 310 310 309 309 309 309 309 310 310 311 312 313 314 315 314 314 314 314 316 317 318 319 319 321 325 327 329 333 331 326 329 337 341 341 340 340 342 344 348 353 354 353 356 356 355 356 358
309 308 308 310 312 311 310 311 310 311 311 310 310 310 309 310 309 309 310 310 309 309 309 309 309 310 311 311 311 311 310 309 309 309 309 309 309 308 309 309 309 309 310 309 309 309 309 309 309 309 311 312 313 314 315 316 316 316 316 316 317 319 320 320 327 335 335 333 333 330 329 335 341 340 340 341 342 343 347 350 355 356 358 356 356 356 358 358
Wind_Speed
31 31 30 28 27 25 24 23 23 21 20 19 17 15 14 14 14 14 14 14 14 14 15 16 16 14 13 11 11 10 9 8 7 8 12 11 8 10 11 6 14 21 26 23 22 22 18 16 16 16 12 10 8 7 9 9 6 4 3 4 4 1 2 3 4 4 1 4 9 12 12 9 11 10 7 7 8 10 11 8 9 7 5 8 17 26 30 32
33 32 31 30 28 26 25 24 23 22 20 19 17 16 15 14 14 14 14 14 14 14 14 15 15 14 13 11 9 8 7 8 10 12 13 7 11 8 11 11 17 25 27 23 26 25 20 18 18 17 11 8 7 8 9 7 7 6 4 5 3 2 4 3 4 4 2 3 7 10 12 9 10 11 9 9 11 12 11 10 10 10 11 13 20 26 30 32
34 34 32 31 29 27 25 24 23 21 20 20 18 17 15 15 14 14 15 14 14 14 14 15 15 15 13 10 8 6 6 8 9 6 3 9 15 10 9 16 21 29 28 23 26 26 22 21 22 18 11 8 7 8 9 7 7 6 5 5 1 3 2 2 3 3 3 1 6 9 10 10 9 10 9 10 12 13 11 11 12 12 14 15 18 24 29 30
35 35 34 32 30 28 26 24 22 21 20 19 18 17 16 16 15 15 16 15 14 14 15 16 15 15 11 8 6 4 5 7 2 4 7 13 15 8 10 20 25 32 26 20 23 21 18 18 20 16 11 9 8 8 9 8 7 5 6 5 2 2 1 3 4 6 4 0 5 9 10 10 9 9 9 9 11 11 10 12 13 14 17 17 18 24 28 28
35 35 35 33 31 29 27 24 22 21 19 18 18 18 17 16 16 17 17 16 16 15 16 16 14 12 9 6 4 2 6 4 3 7 16 14 10 3 15 24 29 32 23 18 20 18 16 16 16 13 9 8 8 9 9 10 7 4 7 7 2 1 1 4 3 5 5 1 3 8 10 9 10 9 9 10 8 5 7 11 13 15 19 20 21 23 26 26
36 36 36 34 32 30 27 25 22 21 19 17 18 18 17 17 17 17 18 19 18 16 16 14 10 8 7 5 2 3 7 2 4 10 20 14 6 5 21 28 31 29 20 19 19 16 16 16 15 12 9 9 9 9 9 11 10 6 7 7 5 5 3 1 1 4 4 1 3 7 8 8 10 9 8 10 5 2 5 11 13 15 19 23 24 23 24 24
36 36 36 35 33 30 28 25 22 20 18 17 17 18 18 18 18 18 19 19 18 17 14 9 6 5 6 4 1 6 8 2 5 12 21 17 6 12 27 31 32 25 20 21 19 16 16 17 16 11 9 9 9 10 9 10 12 9 6 6 6 6 6 5 4 4 3 1 1 4 7 8 11 9 7 10 5 4 7 12 14 17 20 23 23 22 23 24
36 36 36 35 34 31 28 25 22 20 17 17 18 18 18 18 18 19 19 18 17 15 8 3 4 4 4 2 5 7 5 2 6 13 19 16 6 17 28 29 29 23 21 23 20 18 17 18 17 11 10 9 7 9 9 9 12 12 10 6 5 7 7 6 5 4 3 1 1 4 7 8 10 7 6 9 6 6 10 14 16 18 20 20 21 23 22 22
36 36 36 35 34 32 28 25 22 19 17 18 19 19 19 19 19 19 18 17 14 8 1 1 3 4 3 3 8 6 1 5 6 13 14 9 5 18 25 25 26 22 21 22 20 19 15 15 17 12 9 8 7 9 9 8 8 10 12 9 6 7 7 6 6 6 5 2 2 5 8 7 9 7 6 9 7 7 13 15 17 19 19 19 19 22 22 22
36 36 36 36 34 31 28 25 21 19 18 19 20 20 20 20 20 18 15 12 7 1 1 1 2 3 1 5 8 4 5 5 5 11 11 5 8 17 20 20 25 22 20 20 20 20 15 13 16 10 6 7 8 9 11 10 4 3 8 11 11 10 8 8 8 8 7 5 4 6 7 7 9 8 6 10 11 10 15 16 17 18 18 19 18 19 20 22
36 36 36 35 34 32 28 24 20 19 19 20 20 20 21 21 18 14 10 6 3 2 2 2 1 1 4 7 7 2 5 4 5 9 7 4 8 16 17 16 22 22 19 18 19 21 18 15 13 8 4 4 7 10 11 11 7 4 5 8 10 12 11 11 11 9 8 5 7 7 7 8 10 9 7 11 15 14 15 17 18 17 17 18 19 18 17 19
36 36 35 35 34 31 27 22 19 18 20 20 21 22 22 17 12 8 5 5 4 5 4 2 1 1 6 6 4 4 5 4 4 7 6 2 5 11 13 13 19 21 17 16 18 21 19 15 13 11 4 1 5 7 6 9 10 9 8 9 9 10 11 13 12 11 9 6 7 7 7 9 10 11 10 11 16 15 15 16 17 16 15 17 17 17 15 17
36 36 36 35 34 31 26 20 17 18 18 19 22 23 18 12 8 4 4 5 8 8 4 2 1 3 6 2 2 4 3 2 3 6 6 1 3 7 10 12 17 18 15 15 16 19 18 14 14 14 5 3 5 2 2 7 10 10 10 9 8 8 10 14 13 12 11 7 8 8 6 7 10 13 12 12 15 16 15 16 16 15 14 15 16 15 15 18
36 36 37 36 34 31 25 19 16 17 17 20 23 19 13 9 5 2 3 8 12 6 1 1 1 4 5 1 3 2 3 4 2 4 6 1 3 5 8 11 16 14 11 13 14 15 15 13 14 13 7 7 4 0 4 6 8 10 9 8 7 7 9 13 14 14 13 9 10 10 5 4 8 12 13 13 16 16 15 15 16 15 14 14 15 15 16 18
35 36 37 36 34 30 24 18 15 16 17 21 21 15 11 7 1 3 1 11 12 3 3 3 2 5 4 3 3 1 3 4 3 5 4 1 2 5 8 11 16 12 8 10 11 12 12 12 12 10 8 8 6 5 7 6 6 8 8 8 9 8 7 11 13 15 14 10 12 11 5 4 7 12 15 15 16 16 14 15 16 15 16 15 15 16 15 17
35 36 37 37 34 29 23 16 13 15 17 20 18 12 10 5 2 3 2 11 10 4 3 1 2 5 4 3 2 2 3 7 7 6 2 3 2 3 9 12 15 13 10 9 9 10 11 11 10 9 8 9 8 7 7 6 7 8 9 9 10 11 9 8 11 15 14 10 13 13 5 3 5 11 17 17 17 17 14 14 16 16 16 16 15 15 15 16
35 36 37 37 34 28 21 14 12 14 17 19 15 9 9 4 4 3 4 10 6 2 2 3 2 5 2 3 1 4 9 12 10 6 4 4 4 6 11 12 14 13 11 10 9 10 11 10 8 8 9 8 8 8 7 8 9 8 9 10 11 14 11 9 10 14 15 11 13 15 9 8 7 9 15 16 17 17 14 15 16 15 15 15 14 14 15 16
36 37 37 37 34 28 19 13 11 12 17 18 11 6 9 3 3 2 5 5 1 4 5 4 3 4 1 5 6 10 14 13 9 5 3 4 7 10 12 12 12 14 12 10 11 11 10 9 8 8 9 9 9 10 9 10 10 11 11 10 11 11 12 13 9 11 16 14 13 14 13 14 10 7 13 15 16 16 15 15 15 16 16 15 14 15 15 16
37 38 38 37 33 26 18 13 11 12 17 17 9 4 5 2 3 4 5 3 2 2 1 1 2 1 3 7 10 13 13 10 5 3 1 5 9 12 12 11 12 14 12 9 12 13 9 8 9 9 10 12 13 14 13 8 7 11 12 12 12 10 10 14 9 7 13 14 13 14 13 14 11 8 11 13 14 15 15 14 14 14 15 15 14 14 15 17
37 37 37 35 31 25 16 12 11 11 15 17 11 5 2 3 2 3 3 4 3 4 3 3 4 3 5 7 10 13 10 4 3 5 5 5 12 14 11 10 12 12 10 10 11 12 10 9 11 12 13 15 16 16 16 9 3 6 9 11 14 12 9 13 12 7 8 10 12 15 14 13 12 13 13 12 14 15 15 15 14 15 15 15 16 16 17 17
36 36 34 31 29 23 14 11 11 10 13 15 11 4 4 7 4 3 7 3 2 4 4 2 3 4 5 6 9 12 7 2 7 9 6 5 11 12 10 10 12 10 11 11 10 11 11 11 13 16 15 14 15 16 16 13 7 6 7 9 11 11 9 10 11 8 7 8 10 14 15 15 14 14 12 12 14 14 15 16 16 18 17 15 17 18 17 15
36 34 32 28 26 22 12 10 11 8 10 11 10 8 7 6 5 4 6 3 1 2 3 1 3 4 5 3 4 9 7 0 6 9 6 3 11 10 8 11 11 10 12 12 9 10 11 13 16 16 14 12 13 14 16 16 12 8 7 7 8 10 9 8 8 7 7 6 8 11 12 13 13 13 12 12 13 13 14 16 16 18 18 16 17 17 17 16
35 33 32 26 23 20 9 7 12 9 8 9 9 10 5 4 5 4 5 5 1 2 1 3 2 5 7 2 4 9 5 1 3 6 6 3 9 7 6 11 11 10 13 14 12 10 10 12 16 15 13 13 12 12 15 13 11 10 8 8 8 9 9 8 9 10 9 7 9 11 10 10 11 12 14 13 13 12 13 17 17 17 17 17 18 17 17 19
34 33 32 25 20 18 8 3 9 8 5 4 7 9 5 5 6 4 5 5 1 3 1 3 2 6 9 4 5 8 2 2 3 4 6 5 3 2 6 11 11 11 12 15 16 13 11 8 11 16 15 15 14 12 14 11 9 12 12 10 9 9 10 8 5 7 9 9 10 11 8 9 11 13 13 12 13 13 13 16 16 16 16 15 15 16 17 19
33 32 31 25 18 15 7 2 5 7 4 1 5 8 8 7 5 6 6 4 2 3 3 1 1 4 7 5 5 7 2 0 2 3 5 5 3 3 6 8 9 10 12 17 16 14 13 7 7 14 15 14 15 13 14 12 8 11 14 14 13 9 9 10 6 4 7 10 12 13 10 8 12 15 14 11 12 14 13 15 17 15 15 14 14 16 18 18
33 32 31 24 17 14 6 3 5 9 6 1 8 12 9 7 5 6 5 5 3 4 3 1 1 4 7 6 7 5 4 1 3 2 3 3 4 6 5 5 7 10 11 13 11 9 11 10 9 14 15 16 17 14 14 14 9 8 10 14 17 13 8 9 9 7 7 8 10 12 11 9 10 15 16 14 14 15 14 15 17 15 14 15 15 15 16 17
32 31 30 23 14 12 7 2 8 9 4 5 12 14 10 7 5 7 4 5 3 2 1 1 2 5 8 7 9 5 2 4 2 1 5 4 3 4 6 7 7 8 8 8 8 8 11 14 13 14 15 15 14 12 14 15 11 8 6 9 16 17 14 11 10 9 7 7 7 10 11 10 9 12 14 16 17 16 16 16 16 15 16 17 16 16 17 18
31 30 29 20 9 7 6 5 9 7 6 11 15 13 10 5 7 6 5 4 2 2 1 3 2 5 7 5 7 4 3 7 4 2 7 3 3 4 9 11 9 10 10 9 9 8 12 17 15 14 14 12 11 12 14 16 13 10 6 5 11 16 18 15 11 9 8 9 9 10 11 10 9 10 10 13 17 17 16 17 16 16 18 18 17 18 19 19
31 30 25 15 5 4 6 6 6 6 10 14 14 11 6 4 7 4 5 4 2 3 0 2 0 4 7 3 2 5 3 4 4 6 5 2 2 4 7 7 9 11 12 13 12 8 9 14 15 14 13 11 11 11 13 15 13 11 8 6 9 13 15 15 11 9 9 11 12 13 13 10 9 11 11 11 14 15 15 14 15 17 18 18 18 18 18 17
31 28 20 9 3 4 7 4 3 7 13 14 12 7 3 6 5 5 5 3 2 3 1 3 2 4 8 3 2 5 4 4 6 6 3 2 2 4 4 4 7 10 11 14 15 13 10 9 12 13 12 11 11 11 11 13 13 12 11 8 9 10 10 11 10 9 10 12 14 16 16 13 10 9 11 11 11 14 14 12 13 16 17 18 17 16 17 17
30 24 11 4 3 5 5 4 5 12 15 14 10 3 6 4 4 6 3 1 1 1 2 3 4 4 7 5 3 5 4 4 6 6 2 1 3 3 3 4 5 7 10 11 12 15 16 11 9 10 13 13 12 11 11 12 13 12 10 9 9 8 8 8 9 10 11 12 12 15 18 16 13 9 10 11 13 15 16 14 14 16 17 16 15 15 17 17
28 18 3 4 6 5 5 8 12 16 15 13 7 5 5 4 5 4 0 2 2 2 2 3 6 5 5 3 4 7 4 4 6 6 4 2 1 3 3 1 1 5 8 9 10 12 15 15 12 10 13 15 14 11 10 12 13 11 10 10 10 8 8 9 10 11 12 11 11 14 16 16 14 11 11 12 12 15 16 15 14 14 15 15 15 16 15 16
26 11 3 6 10 5 8 13 15 15 13 11 7 5 4 6 4 0 2 1 0 4 4 2 4 5 5 2 5 7 2 3 7 5 3 3 1 4 5 7 5 6 5 6 9 10 10 14 17 14 10 13 15 12 10 10 12 12 11 11 11 9 9 10 10 10 11 11 13 14 14 13 13 11 14 16 12 11 13 14 13 12 13 14 15 16 15 16
23 4 6 7 12 7 12 16 15 13 10 9 7 5 6 6 0 2 1 3 3 3 2 2 2 2 3 3 5 6 2 3 7 6 3 3 3 2 4 7 8 5 5 6 8 9 11 10 15 18 12 13 18 14 12 11 10 13 12 11 11 10 8 9 9 10 10 9 13 16 12 10 10 8 11 16 15 12 11 11 11 10 10 11 12 14 15 16
19 2 5 6 10 9 13 14 12 10 8 7 6 5 6 4 1 1 1 4 3 2 2 1 3 3 2 3 4 6 3 3 6 5 3 1 1 2 2 5 9 7 4 7 6 8 13 8 7 12 10 13 19 16 14 13 10 11 12 12 12 10 8 7 7 8 9 8 10 13 9 6 6 5 6 9 13 16 15 14 14 13 12 11 11 13 14 14
15 2 3 4 9 12 14 12 9 7 6 6 5 5 2 3 4 2 2 3 1 2 1 2 2 2 0 1 2 5 3 4 5 4 1 1 2 4 4 5 7 8 5 5 5 4 10 7 6 7 8 12 15 15 15 14 9 9 11 12 11 11 10 8 8 7 7 9 8 9 10 8 7 7 8 9 10 13 16 17 18 17 16 14 12 12 13 14
14 5 3 5 13 16 15 11 8 6 6 6 4 2 2 3 4 3 3 2 1 2 5 3 1 2 3 2 1 5 6 3 2 3 1 2 2 4 5 4 6 8 7 5 4 1 4 6 3 7 13 11 6 8 13 14 12 7 10 12 11 12 12 8 8 8 8 10 7 9 12 11 9 8 10 15 16 14 14 15 16 17 17 17 15 14 14 15
12 6 2 8 18 18 13 10 7 6 6 4 1 2 2 2 3 3 2 1 1 2 5 3 2 1 3 3 2 4 7 4 2 3 3 1 1 4 4 3 5 7 8 7 4 1 4 8 5 8 14 10 6 9 12 14 17 14 9 10 11 11 11 9 8 8 10 10 7 10 14 12 10 8 7 14 19 18 16 14 15 17 16 15 16 16 17 17
10 5 1 12 22 17 11 8 7 6 5 3 3 3 2 3 5 4 2 0 2 3 3 1 2 1 1 4 4 2 3 4 5 3 2 1 1 4 5 4 5 7 9 7 6 3 4 7 6 8 11 9 9 11 10 12 16 16 13 10 12 9 9 9 8 8 8 8 8 10 12 9 9 10 9 10 13 17 19 16 14 16 16 14 14 15 16 16
7 3 2 17 24 17 9 7 6 3 2 0 2 3 3 4 4 4 3 2 2 3 3 1 1 2 1 3 4 2 2 4 5 4 2 1 0 3 5 6 6 8 9 7 5 4 3 6 7 8 9 7 9 12 14 14 14 14 13 12 12 10 9 10 9 9 8 8 7 7 8 7 6 9 12 10 7 9 13 14 13 14 15 14 14 14 14 15
6 2 4 18 25 18 10 5 1 1 1 3 4 4 3 2 3 4 4 3 2 1 3 3 2 4 4 4 4 2 4 6 4 4 3 1 0 1 5 7 8 9 9 6 4 2 3 5 8 8 7 10 11 8 10 11 8 9 13 14 14 12 11 11 10 11 10 8 7 7 6 4 3 5 9 11 9 8 9 11 12 12 14 14 14 15 14 14
4 1 5 18 24 17 9 0 3 2 2 4 4 4 3 2 2 2 3 2 1 0 2 2 2 4 4 5 5 4 5 6 4 4 3 0 2 3 5 8 9 8 7 5 2 3 4 4 7 9 9 10 8 3 5 6 5 5 7 11 13 12 12 12 10 9 10 10 9 8 8 4 4 4 4 6 9 10 10 10 9 10 11 12 14 15 15 15
3 3 5 16 21 14 6 2 4 1 4 4 3 4 3 2 2 2 2 2 2 1 2 2 2 4 3 3 5 5 4 5 4 4 4 2 1 3 4 6 8 7 6 4 1 3 3 5 7 8 9 11 10 5 4 5 4 7 7 6 7 8 8 7 5 4 6 11 11 8 8 6 3 4 3 4 5 7 8 8 7 8 7 8 9 11 13 15
3 3 2 13 20 10 4 3 3 3 5 4 4 5 4 4 5 4 4 4 3 2 4 3 2 3 2 2 5 6 4 3 3 3 3 4 0 4 2 4 6 7 5 4 4 4 3 4 6 7 8 10 11 9 7 6 7 10 10 5 3 4 4 5 5 3 4 9 12 10 8 6 4 5 5 5 7 9 9 8 8 7 6 7 6 5 7 8
3 2 1 8 15 9 3 4 3 3 5 5 5 4 2 4 5 5 5 5 4 3 3 1 1 3 3 4 6 5 4 4 3 2 3 4 1 3 1 3 5 6 5 7 7 6 5 5 5 7 9 10 10 8 5 4 7 9 8 5 4 4 5 6 8 8 7 8 10 9 7 5 5 6 6 7 8 9 9 9 8 7 6 6 5 4 5 5
3 2 2 4 7 7 6 4 4 3 4 3 3 3 2 2 4 3 4 3 4 4 3 1 2 4 4 5 6 5 5 5 5 4 4 6 4 1 1 3 6 6 6 6 7 6 6 7 7 10 11 8 6 5 6 7 6 7 7 6 5 4 5 6 9 11 9 8 11 11 9 8 6 6 6 5 3 3 5 5 4 4 3 2 1 2 4 6
2 2 5 3 2 4 5 4 5 4 2 1 1 2 3 3 2 2 2 3 3 3 3 1 3 4 4 4 6 5 5 6 7 7 6 7 6 5 4 5 6 4 3 6 7 4 5 7 9 13 14 12 11 11 10 9 9 8 6 5 6 5 6 8 11 11 5 6 13 12 9 11 9 4 2 3 7 9 10 11 9 6 5 4 2 1 4 5
2 2 3 3 3 3 4 4 5 4 3 2 1 1 2 3 3 2 2 1 2 3 3 2 1 3 4 4 5 5 6 6 6 5 5 6 7 7 6 6 5 1 2 7 5 3 5 7 9 12 15 15 13 12 11 10 10 11 10 8 7 7 9 11 12 11 5 5 10 7 5 9 11 7 7 9 11 10 10 11 10 8 6 5 4 3 4 5
2 2 3 2 1 3 4 4 3 3 4 3 2 3 3 3 4 3 2 2 2 1 3 5 2 3 4 3 4 5 5 6 6 4 5 6 7 7 7 6 4 1 3 6 4 3 5 6 7 10 13 16 15 12 11 11 11 12 13 12 10 9 10 11 11 11 9 8 9 8 9 11 9 7 12 13 12 11 9 9 9 7 7 7 7 7 7 6
3 2 3 2 4 3 3 3 1 2 4 2 1 4 3 3 4 3 3 4 4 1 3 6 4 4 5 3 4 6 5 6 7 6 7 7 7 6 5 5 4 2 4 5 4 4 4 4 7 8 10 14 14 12 11 12 12 14 14 13 13 11 11 11 10 11 12 11 9 9 12 13 6 7 11 13 14 13 11 10 9 8 9 11 11 10 9 8
5 4 2 1 3 2 2 3 2 1 4 3 3 3 2 3 5 4 3 2 4 3 4 6 6 5 4 4 4 5 5 6 8 9 9 9 8 7 5 5 6 6 6 6 5 5 5 6 7 7 7 10 10 9 10 11 12 15 15 15 15 13 11 11 9 9 11 11 10 11 11 10 5 8 10 11 13 15 14 12 10 9 11 12 12 13 12 11
4 4 2 1 1 2 2 2 1 0 3 3 3 3 2 3 3 5 3 1 2 3 3 6 7 6 4 4 4 4 6 8 10 10 10 10 11 10 9 10 11 9 8 7 7 6 6 6 7 6 7 8 8 9 8 8 10 12 12 15 16 14 12 11 8 4 5 8 9 9 6 4 6 9 10 10 12 14 14 13 12 11 12 13 13 14 14 14
Wind_Direction
14 12 8 6 4 2 360 358 357 356 354 354 353 352 349 346 343 341 339 333 329 319 312 309 306 309 308 313 318 312 312 305 280 244 239 262 287 264 262 223 191 172 156 159 161 159 165 179 179 175 183 187 204 205 196 211 216 210 219 241 244 206 67 36 24 44 140 145 142 165 179 173 157 166 153 154 162 145 153 148 134 132 105 107 124 140 148 152
15 13 10 7 4 2 360 358 357 355 353 352 352 351 347 344 343 342 341 338 332 322 315 309 306 309 306 316 322 314 311 280 265 257 247 290 342 304 241 202 185 171 162 168 169 167 169 176 177 177 184 189 198 193 190 198 203 216 230 237 239 81 67 33 10 23 10 106 142 173 184 185 166 161 166 173 161 153 159 148 142 133 117 118 130 143 150 153
15 13 11 8 4 2 360 359 356 354 353 351 351 349 345 342 342 341 341 339 333 324 318 311 309 308 306 322 326 321 313 274 266 252 250 327 330 312 217 187 180 171 169 177 176 175 177 175 174 175 183 193 196 191 190 186 196 219 240 244 188 82 67 54 18 19 10 100 164 175 184 193 169 160 179 178 162 168 172 158 158 149 139 140 143 150 153 157
14 13 11 8 5 2 359 358 355 353 351 350 349 347 344 341 341 339 337 335 329 323 320 315 312 310 312 328 336 331 289 267 257 75 6 322 311 300 193 177 175 174 175 182 181 184 186 177 175 181 190 194 191 196 202 188 190 205 224 252 60 101 182 110 60 36 32 310 187 172 179 189 170 167 186 180 170 178 181 171 170 159 149 150 152 157 159 161
13 12 11 9 5 1 359 357 355 352 349 350 347 344 343 340 340 337 333 331 326 322 320 316 315 318 325 337 355 305 262 256 98 26 354 332 306 269 173 170 172 175 179 183 182 186 188 179 181 193 203 203 188 194 210 198 206 227 223 251 299 228 222 114 81 21 20 358 184 174 181 181 170 181 192 188 182 179 180 172 168 156 148 152 157 161 164 166
12 11 10 8 5 1 359 356 354 351 349 349 345 343 341 338 338 334 331 328 322 323 321 316 321 334 344 351 0 249 261 320 70 2 359 359 327 169 162 166 169 175 181 181 180 184 185 180 187 198 209 216 197 196 211 201 217 241 222 234 244 247 265 200 270 337 352 16 164 177 183 175 175 190 197 196 184 79 156 159 152 150 149 152 157 164 168 170
11 10 9 7 4 0 358 356 354 352 350 349 345 340 336 334 334 331 329 324 321 325 319 317 340 355 360 356 256 234 255 327 53 5 2 8 7 155 160 164 168 175 182 180 179 183 182 182 192 199 207 218 207 204 208 199 215 237 242 233 229 241 248 244 267 297 314 6 163 179 183 185 188 190 189 197 183 89 127 140 141 144 149 154 158 167 172 172
10 8 7 5 3 0 357 355 353 352 351 349 344 336 331 329 328 328 326 321 321 324 317 336 9 17 18 337 271 260 252 52 45 5 3 12 41 153 159 163 172 180 183 184 184 183 183 186 193 198 208 217 207 204 201 201 216 229 246 247 233 242 242 242 253 265 275 255 195 183 189 194 192 192 186 192 182 126 129 133 141 144 150 158 162 168 173 174
8 7 5 3 2 360 357 355 354 355 352 346 341 334 328 326 325 326 323 322 325 322 327 60 23 26 23 276 282 286 73 73 25 360 6 25 105 157 161 167 179 184 186 191 188 187 187 189 194 198 217 219 198 203 202 209 219 222 237 245 242 243 235 240 247 251 256 232 200 194 198 195 188 200 195 185 185 149 140 142 147 150 155 161 166 169 173 175
6 5 3 1 0 359 356 354 355 356 351 344 339 334 329 327 327 327 325 329 339 16 82 32 18 18 290 274 284 284 72 48 351 360 13 59 132 161 172 177 182 186 190 193 191 192 192 193 195 200 243 230 202 210 207 213 232 221 243 250 250 253 248 249 251 247 250 235 219 213 200 186 181 199 199 172 180 167 150 151 153 156 160 162 167 171 174 176
5 3 2 359 358 358 356 354 356 356 350 345 340 334 330 330 332 332 336 357 52 62 7 322 1 336 269 279 284 320 46 357 339 4 16 85 143 171 184 188 188 193 194 193 195 196 198 198 193 194 245 225 205 219 215 221 248 261 267 268 252 251 249 242 243 237 236 224 208 215 210 193 179 198 216 165 165 170 160 158 159 162 163 163 168 170 174 177
3 2 0 358 356 357 355 354 356 355 350 345 339 335 335 339 340 344 10 53 46 354 335 288 300 277 271 266 276 351 4 330 344 6 11 92 169 183 192 199 196 200 201 199 200 199 202 200 194 200 206 171 204 216 223 221 240 254 258 272 259 246 241 228 226 221 219 205 181 203 216 205 190 200 212 163 156 169 167 163 163 166 165 164 168 169 174 178
2 0 359 357 354 355 355 354 355 354 351 344 338 338 345 352 349 12 73 42 1 338 307 270 250 243 269 270 50 359 357 337 340 3 8 77 186 193 202 204 199 205 213 213 207 201 205 201 201 211 214 240 213 156 289 215 222 244 240 257 263 249 235 217 213 208 209 198 175 202 220 208 201 202 197 162 161 173 170 168 168 169 167 168 170 170 175 177
2 359 357 355 354 354 354 354 354 354 353 344 340 343 354 355 345 92 94 3 352 342 304 166 162 238 263 115 86 18 34 12 305 349 3 78 156 176 193 197 193 201 217 222 218 203 205 207 209 220 224 246 257 80 251 213 206 229 227 235 244 247 227 200 200 201 201 188 182 206 233 218 191 192 190 168 169 177 174 175 173 171 170 170 172 172 176 178
2 359 356 354 354 354 353 353 354 356 356 346 342 349 355 344 322 150 67 354 352 16 87 108 180 249 252 119 118 270 14 358 302 333 341 192 166 169 176 186 188 192 205 214 214 199 202 208 210 222 217 224 258 245 224 209 201 213 219 221 219 234 217 183 188 200 200 180 184 205 227 230 186 181 185 172 176 183 180 180 176 175 174 172 175 175 178 180
1 358 356 354 354 354 353 354 355 358 359 348 343 353 353 331 199 167 354 352 357 69 92 139 225 267 280 63 104 235 334 333 325 325 288 193 247 180 161 174 181 189 198 197 197 192 198 206 210 224 219 209 223 231 219 208 206 203 216 221 209 215 214 187 183 195 202 183 186 204 212 243 200 176 176 172 182 188 185 185 179 179 177 175 177 176 180 180
1 358 356 354 355 355 353 356 356 359 2 350 342 357 354 322 181 185 333 351 4 111 243 268 289 264 266 50 326 311 338 334 329 311 246 219 230 172 152 163 172 180 186 182 186 189 192 201 208 217 223 220 214 218 218 208 203 194 209 225 216 211 213 204 183 185 201 197 195 201 201 231 216 162 169 176 186 190 189 189 183 182 180 178 180 179 182 182
360 357 355 355 356 355 354 357 359 1 3 355 347 9 6 355 168 244 310 333 270 214 233 247 267 235 166 27 345 337 340 334 335 324 267 210 191 169 158 161 165 170 173 173 184 188 188 194 204 211 212 218 214 209 213 209 206 198 197 216 219 211 210 210 193 181 198 204 207 202 202 223 222 164 173 182 186 192 194 191 186 185 182 180 182 183 184 185
358 357 355 355 355 355 354 360 7 3 6 9 2 348 353 346 190 232 276 279 244 242 237 312 329 288 346 355 349 341 334 326 330 4 90 162 166 161 159 162 165 172 174 171 181 186 186 191 201 212 208 207 208 208 214 214 218 219 208 211 217 213 212 210 198 178 199 209 214 215 214 217 215 199 193 186 188 196 196 191 188 187 185 183 185 187 187 189
358 357 354 353 354 356 355 5 15 7 14 18 356 302 292 329 219 203 324 335 11 358 330 350 354 333 333 340 347 340 332 339 43 61 81 153 163 155 155 166 171 181 190 176 175 183 191 201 203 211 211 207 207 210 220 223 244 259 232 217 220 221 213 204 195 180 202 218 214 218 228 220 210 211 203 188 192 199 197 193 189 189 188 186 188 190 189 192
358 356 353 351 353 355 358 13 18 10 20 20 4 10 49 13 2 0 344 332 61 0 312 341 317 300 326 323 343 345 334 72 68 68 86 165 174 163 156 172 177 186 201 184 169 178 196 214 212 212 214 213 210 211 222 228 228 255 246 223 221 224 217 200 191 180 196 225 220 216 228 228 220 220 208 190 197 202 200 197 192 192 192 188 190 191 190 190
357 356 353 348 350 355 358 19 22 14 17 18 25 48 64 39 4 324 312 285 74 0 290 310 269 297 337 289 340 336 299 222 68 74 76 192 201 193 170 182 194 190 193 190 176 182 202 223 219 211 212 218 218 212 217 228 230 236 240 232 224 220 219 204 187 187 200 223 229 219 225 232 227 227 224 202 198 203 203 201 197 194 192 190 192 191 187 186
356 355 351 346 348 351 350 22 22 18 18 17 35 44 45 19 337 285 261 276 274 165 260 6 322 349 8 40 8 326 293 43 39 64 44 262 214 219 201 192 205 200 192 196 194 193 203 221 221 211 207 213 216 209 209 220 230 231 232 233 228 215 219 219 197 200 215 225 237 235 233 237 229 225 230 216 200 202 205 205 202 197 197 195 192 189 186 185
355 353 349 344 342 345 343 4 12 15 13 10 43 38 5 332 319 262 239 269 237 155 102 19 353 1 6 355 327 315 319 45 331 42 22 296 213 221 226 206 209 211 202 203 207 213 216 219 216 210 205 206 206 202 206 214 224 228 229 233 231 216 222 237 207 191 215 224 233 242 241 237 228 222 225 216 202 203 206 205 204 202 202 200 194 191 190 188
353 351 348 342 338 344 329 258 8 4 323 325 39 9 340 330 303 241 244 256 187 150 156 172 260 14 352 306 314 321 284 281 341 38 15 316 294 255 229 217 218 218 207 205 214 224 225 217 192 199 198 200 209 209 209 215 223 225 223 228 237 235 227 236 237 208 221 223 214 223 239 237 222 222 223 212 201 204 204 202 203 201 198 198 197 194 193 191
351 350 347 340 336 339 311 228 10 342 300 13 8 342 330 325 278 217 244 252 185 138 151 205 291 20 355 324 343 331 228 135 45 17 356 339 277 259 240 218 214 227 218 205 217 233 227 210 179 192 198 200 214 219 209 211 226 231 214 216 230 243 243 237 240 230 231 233 201 201 234 244 221 222 222 214 208 204 201 201 201 197 193 196 198 195 193 192
349 349 345 339 338 339 331 334 344 331 310 342 340 331 324 311 239 194 243 245 181 105 78 29 12 4 358 342 335 312 222 356 2 127 10 352 238 228 239 229 208 226 227 206 219 223 219 211 187 196 208 203 212 218 205 204 220 233 204 204 221 231 238 240 243 239 240 250 211 193 226 246 234 223 215 213 213 205 199 201 199 195 195 198 200 196 194 193
348 348 343 339 336 338 342 327 325 341 348 329 325 324 320 288 196 192 258 250 132 76 28 42 24 331 331 323 333 347 14 337 303 58 22 325 226 213 232 239 233 227 214 210 224 198 202 216 204 199 210 209 212 216 208 204 217 229 209 206 221 226 232 236 244 245 241 249 236 211 217 236 239 224 210 211 215 209 203 203 200 196 197 200 201 199 195 194
348 347 342 339 341 348 343 316 307 335 336 326 324 325 313 200 188 215 264 255 99 100 65 8 321 321 323 286 11 26 14 342 336 350 350 228 231 242 240 263 266 247 220 216 231 213 196 216 214 207 212 216 213 215 214 209 217 229 219 220 230 228 229 231 238 247 243 244 240 223 214 226 239 222 211 211 213 212 209 206 202 198 198 200 201 200 196 194
349 346 343 349 14 352 327 280 270 325 329 331 333 324 222 185 214 240 235 229 80 91 60 3 340 326 335 321 84 30 6 14 359 327 279 175 187 222 244 289 272 262 240 221 231 238 229 214 212 214 219 224 217 215 218 213 217 225 218 217 225 224 224 226 230 240 245 241 235 226 220 227 240 226 214 213 210 213 214 209 202 199 199 199 200 200 196 193
348 346 349 21 7 341 315 270 319 329 328 336 336 276 209 205 246 250 241 179 70 90 133 47 26 350 351 359 27 15 5 23 5 340 311 184 178 193 238 228 222 248 243 227 226 235 235 224 209 212 217 225 225 218 215 211 214 221 213 208 216 213 209 219 220 221 236 240 231 225 223 229 237 229 219 214 207 213 217 211 202 199 199 198 197 198 197 194
348 347 20 51 360 338 308 304 323 323 325 334 314 233 225 233 233 242 152 163 212 49 78 38 23 15 353 353 23 8 350 17 9 355 355 329 134 60 12 351 250 237 231 228 219 217 229 228 219 212 209 215 221 216 211 208 209 214 208 205 210 203 195 208 211 213 227 237 233 226 222 228 238 233 226 225 212 210 217 215 206 200 197 196 194 196 197 195
349 346 149 29 359 328 313 319 321 317 321 319 278 231 245 249 239 336 70 140 284 48 51 7 17 14 349 343 25 7 334 25 8 345 345 310 257 90 73 41 1 271 249 249 230 213 220 222 218 216 204 205 213 212 207 204 202 206 204 203 208 199 195 206 209 215 228 229 227 231 231 235 241 231 221 226 222 211 212 212 210 206 202 197 194 195 196 195
350 335 179 5 353 334 328 324 317 312 308 294 261 225 238 244 214 65 78 65 73 88 63 17 345 359 30 46 26 8 349 56 19 340 325 269 237 123 97 49 18 310 279 273 253 226 224 219 209 211 203 198 208 216 218 209 200 204 206 210 216 210 206 210 208 213 224 223 214 220 231 237 236 227 217 222 223 215 210 207 207 210 209 203 196 195 195 194
355 358 182 347 340 332 331 317 308 304 288 276 256 230 240 250 68 98 94 62 77 113 88 28 291 274 106 86 54 40 15 22 19 339 323 318 335 29 31 28 21 356 295 255 258 239 239 239 182 194 199 196 204 211 218 219 206 196 204 215 218 217 220 227 232 228 230 232 211 207 219 231 232 227 207 215 219 214 217 218 215 214 212 208 203 198 196 195
360 2 203 329 337 335 333 321 310 293 263 262 251 232 252 23 33 43 45 24 355 359 300 219 268 290 158 85 79 63 26 336 347 325 270 90 41 34 27 26 21 7 347 279 277 260 242 230 129 151 190 196 207 209 208 222 220 187 199 217 217 220 229 236 243 241 241 241 218 203 217 224 237 236 210 210 218 212 216 222 220 218 216 215 213 205 199 195
352 338 242 341 349 342 336 327 308 269 242 254 255 244 57 52 32 36 40 352 334 340 291 251 69 339 319 334 40 29 360 316 334 323 255 148 102 45 26 29 26 10 3 329 293 358 282 255 171 188 201 188 202 215 208 226 241 216 199 204 208 222 230 236 238 225 224 235 220 207 218 218 223 230 211 211 218 215 214 218 218 218 219 219 217 211 203 198
327 307 246 2 355 343 338 330 299 251 235 243 192 81 62 94 60 51 48 345 240 256 276 275 32 338 302 317 353 17 341 320 7 333 287 226 124 48 17 8 18 5 357 332 282 4 316 272 235 212 211 189 177 209 213 219 232 245 238 203 199 217 218 216 230 225 219 228 222 215 222 221 221 222 208 211 216 216 214 215 217 219 219 218 216 211 205 200
300 273 199 7 354 345 344 324 284 246 233 225 148 110 83 100 77 49 34 328 246 261 278 294 348 286 270 332 333 7 342 331 344 320 277 279 69 57 25 349 351 352 349 329 296 311 297 263 236 201 201 197 192 205 215 208 213 238 256 230 209 217 218 209 220 231 229 231 226 218 220 224 225 226 225 221 216 214 213 211 216 220 219 214 210 209 205 200
295 258 60 3 350 347 341 298 269 243 216 47 85 112 105 102 84 52 29 335 272 293 321 334 299 280 315 334 305 322 351 314 313 306 290 330 2 88 50 5 343 343 338 309 280 294 274 255 243 199 181 201 212 209 216 214 206 214 227 226 216 213 217 219 221 224 229 236 230 221 223 222 211 216 225 225 215 211 213 213 214 217 220 215 207 209 207 199
297 255 38 357 347 341 319 276 261 32 143 87 77 102 88 50 52 60 48 351 315 331 327 319 310 308 319 309 290 327 323 289 287 292 275 270 277 108 62 19 344 338 331 288 250 307 294 252 245 227 202 208 213 216 231 237 234 219 213 217 221 216 212 219 225 218 220 233 234 229 233 219 150 177 213 220 222 222 217 220 221 218 221 218 212 213 208 199
303 356 9 347 343 334 309 204 94 28 99 95 81 85 62 13 11 39 44 352 325 52 301 294 317 309 304 301 306 320 301 288 286 282 273 297 324 342 41 15 338 329 324 288 260 0 334 283 252 246 241 234 236 302 300 271 276 263 230 220 223 223 217 220 224 220 218 221 225 237 244 225 117 127 187 210 221 226 221 223 230 226 225 223 216 214 208 199
343 12 2 347 344 323 291 93 105 101 83 96 107 84 60 33 31 24 19 341 311 293 276 270 296 297 297 306 302 296 292 295 285 275 280 273 305 20 28 357 337 327 317 297 302 5 320 267 246 245 253 260 267 284 275 260 252 238 229 224 233 235 234 240 251 265 239 217 209 221 235 229 159 141 194 230 232 235 232 231 239 239 242 247 235 221 210 202
344 327 4 1 356 330 270 54 75 111 94 118 131 102 88 57 34 16 24 14 351 304 279 285 294 289 299 288 281 285 296 294 265 253 281 278 47 64 12 338 346 335 339 359 352 344 310 260 243 235 229 232 233 223 211 212 224 229 221 205 224 244 257 271 270 279 266 234 222 219 222 225 190 165 190 234 244 247 244 237 238 241 252 265 263 240 216 207
305 270 141 27 21 25 52 31 25 105 109 121 108 86 101 90 50 13 15 28 16 334 297 301 293 285 298 285 273 276 278 279 275 265 287 287 291 86 38 346 332 316 348 359 327 308 293 278 266 244 225 213 213 216 220 219 217 221 216 201 209 229 241 253 245 231 230 239 238 233 228 212 174 168 189 217 234 244 246 242 235 235 247 259 254 226 207 202
321 351 17 44 48 55 67 42 22 77 104 117 99 61 28 68 80 40 357 9 32 357 319 325 296 280 284 289 283 278 275 282 288 288 292 288 287 335 13 325 307 305 336 325 292 288 288 274 269 263 256 257 271 288 316 320 277 225 204 197 200 210 227 241 240 231 230 237 233 231 244 242 201 169 184 201 237 293 306 301 277 249 260 282 264 213 208 206
332 5 9 357 22 55 66 55 40 60 74 332 20 61 30 19 51 59 8 359 18 340 301 308 311 295 296 303 296 290 292 291 284 288 297 294 297 306 294 288 290 297 310 276 258 273 293 272 265 269 269 276 291 297 300 300 290 274 250 220 201 197 214 225 230 230 234 242 226 219 241 252 234 203 157 33 8 1 358 349 343 339 333 334 341 275 238 225
2 39 26 329 311 21 38 35 40 63 78 62 64 76 49 33 22 21 35 13 330 319 299 262 282 321 329 326 310 301 303 296 284 293 311 310 310 309 299 292 288 254 248 262 259 279 287 278 274 276 279 283 286 288 284 276 276 278 274 258 234 214 213 220 229 233 231 241 237 239 289 263 243 262 325 351 350 343 343 338 328 324 328 333 332 305 276 258
27 62 49 352 350 42 45 43 38 65 68 58 68 60 35 39 37 13 352 307 276 318 310 284 290 335 324 318 304 297 305 302 295 313 325 317 312 309 305 298 288 248 256 263 263 282 280 279 284 285 291 292 286 276 269 265 267 269 265 258 250 236 228 227 233 237 237 243 250 272 296 276 261 310 332 328 329 329 326 323 319 323 339 343 333 320 309 307
30 53 38 47 75 60 52 62 48 84 71 26 25 57 24 19 33 6 330 309 290 300 310 300 322 335 313 301 284 283 302 305 294 301 310 305 302 303 307 304 295 295 288 271 259 272 274 282 299 303 297 287 281 274 261 251 253 261 262 257 249 239 234 232 232 233 233 233 234 245 262 264 276 3 344 320 321 324 316 318 325 334 345 343 334 329 326 324
50 63 21 353 79 46 15 58 47 72 71 36 25 47 22 33 28 334 312 315 294 305 325 315 325 328 301 279 272 284 305 301 285 286 291 289 287 288 286 284 287 292 289 277 265 262 263 275 288 293 286 278 273 271 267 257 251 255 257 252 244 237 233 230 226 230 232 225 217 221 234 248 293 359 346 322 321 320 316 324 334 340 344 340 332 328 326 323
52 75 40 319 79 52 19 62 62 58 72 50 36 34 6 35 18 323 325 104 256 290 328 319 319 318 295 283 296 312 311 297 288 286 283 276 273 273 267 262 267 271 273 273 273 264 258 272 282 275 277 286 273 264 277 277 256 248 248 242 235 231 231 226 209 197 224 224 220 223 233 285 337 345 335 324 321 316 316 324 331 337 341 335 329 325 322 321